Location: Le Domaine
(47.0333°N, 76.5361°W)
Time: 21:35:59
(UTC-05:00)

S-56A Canister/Altair - Pass Details

Date: 23 November 2019
Orbit: 633 x 2499 km, 38.9° (Epoch: 10 December)

Event Time Altitude Azimuth Distance (km) Brightness Sun altitude
Rises 18:10:17 0° 261° (W) 5,230 13.6 -17.7°
Reaches altitude 10° 18:14:19 10° 256° (WSW) 3,934 12.4 -18.4°
Maximum altitude 18:23:25 47° 187° (S) 1,572 9.1 -19.9°
Enters shadow 18:27:24 23° 126° (SE) 2,038 9.3 -20.6°
Drops below altitude 10° 18:29:32 10° 115° (ESE) 2,662 - -21.0°
Sets 18:31:47 0° 109° (ESE) 3,428 - -21.4°
